DMSP 5D-2 F13 DEB, 40415

Orbit data source: Space-Track

DMSP 5D-2 F13 DEB, 40415 is space debris in SSO originally from a launch on Fri, 24 Mar 1995 UTC launched from the Air Force Western Test Range (AFWTR). Debris objects in space refer to the collection of defunct objects orbiting the Earth. Examples of debris include non-operational satellites, rocket bodies, and fragments generated from explosions, collisions, or faulty payload assembly.

Loading next visibility...
Identifier
40415, 1995-015AC
Orbit
SSO
Country
Flag of USUS
Related business
Manufacturer
Unknown
Mission
Spacecraft
Bus & Motor
Unknown
Mass
Unknown
Launch date (UTC)
1995-03-24 (31 years ago)
Launch vehicle
Unknown
Launch site
Air Force Western Test Range (AFWTR)
Object type
Payload
Rocket body
Debris
Shape & HBR
Unknown shape, 0.1 m
Radar Cross Section
Medium (>0.1 m² and <1 m²)

Expand to show TLE details & history
Last TLE update: 2 days ago

TLE from 2 days ago
0 DMSP 5D-2 F13 DEB
1 40415U 95015AC  26171.03664130  .00001472  00000-0  59293-3 0  9999
2 40415  98.7178 198.5142 0004440 345.3967  14.7086 14.29547110586453
Epoch: 2026-06-20T00:52Z
TLE epoch observation values (Epoch: 2026-06-20T00:52:45.808Z)
Latitude
0.00001°
Longitude
-82.9337°
Altitude
793.092 km
Speed
7.459 km/s
True Right ascension
13h 14m 03s
True Declination
0° 00' 00"
Sunlit
Object was in daylight at epoch
Visualization orbit readout
Latitude
Unknown
Longitude
Unknown
Altitude
Unknown
Speed
Unknown
Apparent Right ascension
Unknown
Apparent Declination
Unknown
Sunlit
N/A
Visualization observer readout
Local Sidereal Time
04:44:42
Azimuth
Unknown
Elevation
Unknown
Doppler factor
Unknown
Orbital elements
Apogee altitude
793.574 km
Perigee altitude
787.208 km
Semi-major axis
7,168.528 km
Eccentricity
0.00044
Inclination
98.7178°
RAAN
198.5142°
Arg. of periapsis
345.3967°
True anomaly
14.72153°
Mean anomaly
14.7086°
Eccentric anomaly
14.71506°
Mean motion
3.57601 °/min
Orbital period
100.67 mins
BSTAR
0.00059293

Documentation

Showing up to 5 results
|